Year,Month,Day,Hour,Minute,Value (Times are PST for temperature in C)
2007,06,25,00,00,9.40
2007,06,25,00,01,9.30
2007,06,25,00,02,9.30
2007,06,25,00,03,9.30
2007,06,25,00,04,9.30
2007,06,25,00,05,9.30
2007,06,25,00,06,9.30
2007,06,25,00,07,9.30
2007,06,25,00,08,9.30
2007,06,25,00,09,9.30
2007,06,25,00,10,9.20
2007,06,25,00,11,9.20
2007,06,25,00,12,9.20
2007,06,25,00,13,9.20
2007,06,25,00,14,9.20
2007,06,25,00,15,9.20
2007,06,25,00,16,9.20
2007,06,25,00,17,9.20
2007,06,25,00,18,9.20
2007,06,25,00,19,9.20
2007,06,25,00,20,9.30
2007,06,25,00,21,9.30
2007,06,25,00,22,9.30
2007,06,25,00,23,9.30
2007,06,25,00,24,9.30
2007,06,25,00,25,9.30
2007,06,25,00,26,9.30
2007,06,25,00,27,9.30
2007,06,25,00,28,9.30
2007,06,25,00,29,9.20
2007,06,25,00,30,9.20
2007,06,25,00,31,9.20
2007,06,25,00,32,9.20
2007,06,25,00,33,9.20
2007,06,25,00,34,9.20
2007,06,25,00,35,9.20
2007,06,25,00,36,9.20
2007,06,25,00,37,9.20
2007,06,25,00,38,9.20
2007,06,25,00,39,9.20
2007,06,25,00,40,9.20
2007,06,25,00,41,9.20
2007,06,25,00,42,9.20
2007,06,25,00,43,9.20
2007,06,25,00,44,9.20
2007,06,25,00,45,9.20
2007,06,25,00,46,9.20
2007,06,25,00,47,9.20
2007,06,25,00,48,9.20
2007,06,25,00,49,9.20
2007,06,25,00,50,9.20
2007,06,25,00,51,9.20
2007,06,25,00,52,9.30
2007,06,25,00,53,9.30
2007,06,25,00,54,9.30
2007,06,25,00,55,9.30
2007,06,25,00,56,9.30
2007,06,25,00,57,9.30
2007,06,25,00,58,9.30
2007,06,25,00,59,9.30
2007,06,25,01,00,9.40
2007,06,25,01,01,9.40
2007,06,25,01,02,9.40
2007,06,25,01,03,9.40
2007,06,25,01,04,9.40
2007,06,25,01,05,9.40
2007,06,25,01,06,9.50
2007,06,25,01,07,9.50
2007,06,25,01,08,9.50
2007,06,25,01,09,9.50
2007,06,25,01,10,9.50
2007,06,25,01,11,9.50
2007,06,25,01,12,9.50
2007,06,25,01,13,9.50
2007,06,25,01,14,9.50
2007,06,25,01,15,9.50
2007,06,25,01,16,9.50
2007,06,25,01,17,9.50
2007,06,25,01,18,9.50
2007,06,25,01,19,9.50
2007,06,25,01,20,9.40
2007,06,25,01,21,9.40
2007,06,25,01,22,9.40
2007,06,25,01,23,9.40
2007,06,25,01,24,9.40
2007,06,25,01,25,9.40
2007,06,25,01,26,9.40
2007,06,25,01,27,9.40
2007,06,25,01,28,9.40
2007,06,25,01,29,9.40
2007,06,25,01,30,9.40
2007,06,25,01,31,9.40
2007,06,25,01,32,9.40
2007,06,25,01,33,9.40
2007,06,25,01,34,9.40
2007,06,25,01,35,9.50
2007,06,25,01,36,9.40
2007,06,25,01,37,9.40
2007,06,25,01,38,9.40
2007,06,25,01,39,9.50
2007,06,25,01,40,9.50
2007,06,25,01,41,9.50
2007,06,25,01,42,9.50
2007,06,25,01,43,9.50
2007,06,25,01,44,9.50
2007,06,25,01,45,9.50
2007,06,25,01,46,9.50
2007,06,25,01,47,9.50
2007,06,25,01,48,9.50
2007,06,25,01,49,9.50
2007,06,25,01,50,9.50
2007,06,25,01,51,9.50
2007,06,25,01,52,9.50
2007,06,25,01,53,9.40
2007,06,25,01,54,9.40
2007,06,25,01,55,9.40
2007,06,25,01,56,9.40
2007,06,25,01,57,9.40
2007,06,25,01,58,9.40
2007,06,25,01,59,9.40
2007,06,25,02,00,9.30
2007,06,25,02,01,9.30
2007,06,25,02,02,9.30
2007,06,25,02,03,9.30
2007,06,25,02,04,9.30
2007,06,25,02,05,9.30
2007,06,25,02,06,9.30
2007,06,25,02,07,9.30
2007,06,25,02,08,9.30
2007,06,25,02,09,9.30
2007,06,25,02,10,9.30
2007,06,25,02,11,9.30
2007,06,25,02,12,9.30
2007,06,25,02,13,9.30
2007,06,25,02,14,9.30
2007,06,25,02,15,9.30
2007,06,25,02,16,9.30
2007,06,25,02,17,9.30
2007,06,25,02,18,9.30
2007,06,25,02,19,9.30
2007,06,25,02,20,9.30
2007,06,25,02,21,9.30
2007,06,25,02,22,9.30
2007,06,25,02,23,9.30
2007,06,25,02,24,9.30
2007,06,25,02,25,9.30
2007,06,25,02,26,9.30
2007,06,25,02,27,9.30
2007,06,25,02,28,9.30
2007,06,25,02,29,9.30
2007,06,25,02,30,9.30
2007,06,25,02,31,9.30
2007,06,25,02,32,9.30
2007,06,25,02,33,9.30
2007,06,25,02,34,9.30
2007,06,25,02,35,9.30
2007,06,25,02,36,9.30
2007,06,25,02,37,9.30
2007,06,25,02,38,9.30
2007,06,25,02,39,9.20
2007,06,25,02,40,9.20
2007,06,25,02,41,9.20
2007,06,25,02,42,9.20
2007,06,25,02,43,9.20
2007,06,25,02,44,9.20
2007,06,25,02,45,9.20
2007,06,25,02,46,9.20
2007,06,25,02,47,9.20
2007,06,25,02,48,9.20
2007,06,25,02,49,9.20
2007,06,25,02,50,9.20
2007,06,25,02,51,9.20
2007,06,25,02,52,9.20
2007,06,25,02,53,9.20
2007,06,25,02,54,9.20
2007,06,25,02,55,9.20
2007,06,25,02,56,9.20
2007,06,25,02,57,9.20
2007,06,25,02,58,9.20
2007,06,25,02,59,9.20
2007,06,25,08,21,13.30
2007,06,25,08,22,13.30
2007,06,25,08,23,13.40
2007,06,25,08,24,13.40
2007,06,25,08,25,13.40
2007,06,25,08,26,13.40
2007,06,25,08,27,13.40
2007,06,25,08,28,13.50
2007,06,25,08,29,13.50
2007,06,25,08,30,13.50
2007,06,25,08,31,13.50
2007,06,25,08,32,13.50
2007,06,25,08,33,13.50
2007,06,25,08,34,13.60
2007,06,25,08,35,13.60
2007,06,25,08,36,13.60
2007,06,25,08,37,13.60
2007,06,25,08,38,13.60
2007,06,25,08,39,13.60
2007,06,25,08,40,13.60
2007,06,25,08,41,13.70
2007,06,25,08,42,13.80
2007,06,25,08,43,13.80
2007,06,25,08,44,14.00
2007,06,25,08,45,14.10
2007,06,25,08,46,14.10
2007,06,25,08,47,14.20
2007,06,25,08,48,14.20
2007,06,25,08,49,14.30
2007,06,25,08,50,14.30
2007,06,25,08,51,14.30
2007,06,25,08,52,14.40
2007,06,25,08,53,14.50
2007,06,25,08,54,14.40
2007,06,25,08,55,14.40
2007,06,25,08,56,14.40
2007,06,25,08,57,14.40
2007,06,25,08,58,14.40
2007,06,25,08,59,14.40
2007,06,25,09,00,14.30
2007,06,25,09,01,14.30
2007,06,25,09,02,14.20
2007,06,25,09,03,14.20
2007,06,25,09,04,14.20
2007,06,25,09,05,14.20
2007,06,25,09,06,14.20
2007,06,25,09,07,14.20
2007,06,25,09,08,14.20
2007,06,25,09,09,14.20
2007,06,25,09,10,14.20
2007,06,25,09,11,14.20
2007,06,25,09,12,14.20
2007,06,25,09,13,14.20
2007,06,25,09,14,14.30
2007,06,25,09,15,14.30
2007,06,25,09,16,14.30
2007,06,25,09,17,14.30
2007,06,25,09,18,14.30
2007,06,25,09,19,14.20
2007,06,25,09,20,14.20
2007,06,25,09,21,14.30
2007,06,25,09,22,14.20
2007,06,25,09,23,14.20
2007,06,25,09,24,14.20
2007,06,25,09,25,14.20
2007,06,25,09,26,14.30
2007,06,25,09,27,14.40
2007,06,25,09,28,14.50
2007,06,25,09,29,14.60
2007,06,25,09,30,14.60
2007,06,25,09,31,14.60
2007,06,25,09,32,14.70
2007,06,25,09,33,14.70
2007,06,25,09,34,14.70
2007,06,25,09,35,14.80
2007,06,25,09,36,14.80
2007,06,25,09,37,15.00
2007,06,25,09,38,15.00
2007,06,25,09,39,15.00
2007,06,25,09,40,15.00
2007,06,25,09,41,15.00
2007,06,25,09,42,15.00
2007,06,25,09,43,15.10
2007,06,25,09,44,15.10
2007,06,25,09,45,15.20
2007,06,25,09,46,15.30
2007,06,25,09,47,15.30
2007,06,25,09,48,15.30
2007,06,25,09,49,15.40
2007,06,25,09,50,15.40
2007,06,25,09,51,15.40
2007,06,25,09,52,15.40
2007,06,25,09,53,15.40
2007,06,25,09,54,15.40
2007,06,25,09,55,15.40
2007,06,25,09,56,15.40
2007,06,25,09,57,15.50
2007,06,25,09,58,15.60
2007,06,25,09,59,15.60
2007,06,25,10,00,15.60
2007,06,25,10,01,15.50
2007,06,25,10,02,15.40
2007,06,25,10,03,15.40
2007,06,25,10,04,15.20
2007,06,25,10,05,15.10
2007,06,25,10,06,15.00
2007,06,25,10,07,15.00
2007,06,25,10,08,15.00
2007,06,25,10,09,15.00
2007,06,25,10,10,15.00
2007,06,25,10,11,15.00
2007,06,25,10,12,15.00
2007,06,25,10,13,15.00
2007,06,25,10,14,15.00
2007,06,25,10,15,15.00
2007,06,25,10,16,15.00
2007,06,25,10,17,15.00
2007,06,25,10,18,15.00
2007,06,25,10,19,15.00
2007,06,25,10,20,15.00
2007,06,25,10,21,15.00
2007,06,25,10,22,15.00
2007,06,25,10,23,15.00
2007,06,25,10,24,15.00
2007,06,25,10,25,15.00
2007,06,25,10,26,15.00
2007,06,25,10,27,15.00
2007,06,25,10,28,15.00
2007,06,25,10,29,14.70
2007,06,25,10,30,14.30
2007,06,25,10,31,14.10
2007,06,25,10,32,13.90
2007,06,25,10,33,13.80
2007,06,25,10,34,13.70
2007,06,25,10,35,13.70
2007,06,25,10,36,13.70
2007,06,25,10,37,13.70
2007,06,25,10,38,13.70
2007,06,25,10,39,13.80
2007,06,25,10,40,13.90
2007,06,25,10,41,13.90
2007,06,25,10,42,14.00
2007,06,25,10,43,14.10
2007,06,25,10,44,14.10
2007,06,25,10,45,14.20
2007,06,25,10,46,14.30
2007,06,25,10,47,14.40
2007,06,25,10,48,14.50
2007,06,25,10,49,14.50
2007,06,25,10,50,14.40
2007,06,25,10,51,14.30
2007,06,25,10,52,14.10
2007,06,25,10,53,14.00
2007,06,25,10,54,13.90
2007,06,25,10,55,13.80
2007,06,25,10,56,13.70
2007,06,25,10,57,13.50
2007,06,25,10,58,13.20
2007,06,25,10,59,12.80
2007,06,25,11,00,12.60
2007,06,25,11,01,12.60
2007,06,25,11,02,12.60
2007,06,25,11,03,12.70
2007,06,25,11,04,12.70
2007,06,25,11,05,12.70
2007,06,25,11,06,12.70
2007,06,25,11,07,12.70
2007,06,25,11,08,12.80
2007,06,25,11,09,12.90
2007,06,25,11,10,12.90
2007,06,25,11,11,12.80
2007,06,25,11,12,12.70
2007,06,25,11,13,12.70
2007,06,25,11,14,12.60
2007,06,25,11,15,12.60
2007,06,25,11,16,12.50
2007,06,25,11,17,12.40
2007,06,25,11,18,12.30
2007,06,25,11,19,12.30
2007,06,25,11,20,12.30
2007,06,25,11,21,12.30
2007,06,25,11,22,12.20
2007,06,25,11,23,12.10
2007,06,25,11,24,12.10
2007,06,25,11,25,12.10
2007,06,25,11,26,12.10
2007,06,25,11,27,12.10
2007,06,25,11,28,12.20
2007,06,25,11,29,12.20
2007,06,25,11,30,12.30
2007,06,25,11,31,12.30
2007,06,25,11,32,12.30
2007,06,25,11,33,12.40
2007,06,25,11,34,12.50
2007,06,25,11,35,12.40
2007,06,25,11,36,12.40
2007,06,25,11,37,12.50
2007,06,25,11,38,12.50
2007,06,25,11,39,12.40
2007,06,25,11,40,12.40
2007,06,25,11,41,12.40
2007,06,25,11,42,12.40
2007,06,25,11,43,12.50
2007,06,25,11,44,12.60
2007,06,25,11,45,12.60
2007,06,25,11,46,12.60
2007,06,25,11,47,12.50
2007,06,25,11,48,12.50
2007,06,25,11,49,12.50
2007,06,25,11,50,12.60
2007,06,25,11,51,12.60
2007,06,25,11,52,12.60
2007,06,25,11,53,12.60
2007,06,25,11,54,12.60
2007,06,25,11,55,12.50
2007,06,25,11,56,12.50
2007,06,25,11,57,12.60
2007,06,25,11,58,12.70
2007,06,25,11,59,12.70
2007,06,25,12,00,12.70
2007,06,25,12,01,12.70
2007,06,25,12,02,12.70
2007,06,25,12,03,12.70
2007,06,25,12,04,12.80
2007,06,25,12,05,12.80
2007,06,25,12,06,12.80
2007,06,25,12,07,12.90
2007,06,25,12,08,12.90
2007,06,25,12,09,12.90
2007,06,25,12,10,12.90
2007,06,25,12,11,12.80
2007,06,25,12,12,12.80
2007,06,25,12,13,12.80
2007,06,25,12,14,12.80
2007,06,25,12,15,12.80
2007,06,25,12,16,12.80
2007,06,25,12,17,12.80
2007,06,25,12,18,12.90
2007,06,25,12,19,12.90
2007,06,25,12,20,12.90
2007,06,25,12,21,12.90
2007,06,25,12,22,12.90
2007,06,25,12,23,12.80
2007,06,25,12,24,12.80
2007,06,25,12,25,12.90
2007,06,25,12,26,12.90
2007,06,25,12,27,12.90
2007,06,25,12,28,12.90
2007,06,25,12,29,12.90
2007,06,25,12,30,13.00
2007,06,25,12,31,13.10
2007,06,25,12,32,13.20
2007,06,25,12,33,13.20
2007,06,25,12,34,13.20
2007,06,25,12,35,13.20
2007,06,25,12,36,13.10
2007,06,25,12,37,13.10
2007,06,25,12,38,13.10
2007,06,25,12,39,13.20
2007,06,25,12,40,13.30
2007,06,25,12,41,13.30
2007,06,25,12,42,13.40
2007,06,25,12,43,13.50
2007,06,25,12,44,13.60
2007,06,25,12,45,13.70
2007,06,25,12,46,13.70
2007,06,25,12,47,13.80
2007,06,25,12,48,13.80
2007,06,25,12,49,13.70
2007,06,25,12,50,13.70
2007,06,25,12,51,13.80
2007,06,25,12,52,13.80
2007,06,25,12,53,13.80
2007,06,25,12,54,13.80
2007,06,25,12,55,13.90
2007,06,25,12,56,14.00
2007,06,25,12,57,14.10
2007,06,25,12,58,14.10
2007,06,25,12,59,14.30
2007,06,25,13,00,14.40
2007,06,25,13,01,14.50
2007,06,25,13,02,14.50
2007,06,25,13,03,14.50
2007,06,25,13,04,14.50
2007,06,25,13,05,14.50
2007,06,25,13,06,14.40
2007,06,25,13,07,14.30
2007,06,25,13,08,14.00
2007,06,25,13,09,13.80
2007,06,25,13,10,13.70
2007,06,25,13,11,13.60
2007,06,25,13,12,13.70
2007,06,25,13,13,13.70
2007,06,25,13,14,13.90
2007,06,25,13,15,14.00
2007,06,25,13,16,14.00
2007,06,25,13,17,14.00
2007,06,25,13,18,13.90
2007,06,25,13,19,13.80
2007,06,25,13,20,13.90
2007,06,25,13,21,14.00
2007,06,25,13,22,14.10
2007,06,25,13,23,14.10
2007,06,25,13,24,14.20
2007,06,25,13,25,14.20
2007,06,25,13,26,14.20
2007,06,25,13,27,14.20
2007,06,25,13,28,14.30
2007,06,25,13,29,14.30
2007,06,25,13,30,14.40
2007,06,25,13,31,14.40
2007,06,25,13,32,14.50
2007,06,25,13,33,14.50
2007,06,25,13,34,14.40
2007,06,25,13,35,14.30
2007,06,25,13,36,14.20
2007,06,25,13,37,14.00
2007,06,25,13,38,13.90
2007,06,25,13,39,13.90
2007,06,25,13,40,13.90
2007,06,25,13,41,14.00
2007,06,25,13,42,14.10
2007,06,25,13,43,14.10
2007,06,25,13,44,14.20
2007,06,25,13,45,14.30
2007,06,25,13,46,14.40
2007,06,25,13,47,14.40
2007,06,25,13,48,14.50
2007,06,25,13,49,14.50
2007,06,25,13,50,14.50
2007,06,25,13,51,14.50
2007,06,25,13,52,14.60
2007,06,25,13,53,14.60
2007,06,25,13,54,14.60
2007,06,25,13,55,14.60
2007,06,25,13,56,14.60
2007,06,25,13,57,14.60
2007,06,25,13,58,14.50
2007,06,25,13,59,14.40
2007,06,25,14,00,14.50
2007,06,25,14,01,14.50
2007,06,25,14,02,14.50
2007,06,25,14,03,14.40
2007,06,25,14,04,14.30
2007,06,25,14,05,14.30
2007,06,25,14,06,14.40
2007,06,25,14,07,14.50
2007,06,25,14,08,14.70
2007,06,25,14,09,14.80
2007,06,25,14,10,14.80
2007,06,25,14,11,14.80
2007,06,25,14,12,14.70
2007,06,25,14,13,14.60
2007,06,25,14,14,14.30
2007,06,25,14,15,14.20
2007,06,25,14,16,14.00
2007,06,25,14,17,14.00
2007,06,25,14,18,14.00
2007,06,25,14,19,14.10
2007,06,25,14,20,14.20
2007,06,25,14,21,14.20
2007,06,25,14,22,14.20
2007,06,25,14,23,14.20
2007,06,25,14,24,14.00
2007,06,25,14,25,14.00
2007,06,25,14,26,14.00
2007,06,25,14,27,14.10
2007,06,25,14,28,14.20
2007,06,25,14,29,14.30
2007,06,25,14,30,14.30
2007,06,25,14,31,14.20
2007,06,25,14,32,14.20
2007,06,25,14,33,14.10
2007,06,25,14,34,14.10
2007,06,25,14,35,14.00
2007,06,25,14,36,14.00
2007,06,25,14,37,14.00
2007,06,25,14,38,14.00
2007,06,25,14,39,13.90
2007,06,25,14,40,13.90
2007,06,25,14,41,13.90
2007,06,25,14,42,13.90
2007,06,25,14,43,14.00
2007,06,25,14,44,14.10
2007,06,25,14,45,14.10
2007,06,25,14,46,14.10
2007,06,25,14,47,14.20
2007,06,25,14,48,14.20
2007,06,25,14,49,14.30
2007,06,25,14,50,14.50
2007,06,25,14,51,14.50
2007,06,25,14,52,14.40
2007,06,25,14,53,14.30
2007,06,25,14,54,14.30
2007,06,25,14,55,14.30
2007,06,25,14,56,14.40
2007,06,25,14,57,14.70
2007,06,25,14,58,14.80
2007,06,25,14,59,14.90
2007,06,25,15,00,15.00
2007,06,25,15,01,15.00
2007,06,25,15,02,15.00
2007,06,25,15,03,15.00
2007,06,25,15,04,15.00
2007,06,25,15,05,15.00
2007,06,25,15,06,15.00
2007,06,25,15,07,15.00
2007,06,25,15,08,14.80
2007,06,25,15,09,14.70
2007,06,25,15,10,14.60
2007,06,25,15,11,14.50
2007,06,25,15,12,14.50
2007,06,25,15,13,14.50
2007,06,25,15,14,14.60
2007,06,25,15,15,14.60
2007,06,25,15,16,14.70
2007,06,25,15,17,14.60
2007,06,25,15,18,14.60
2007,06,25,15,19,14.60
2007,06,25,15,20,14.70
2007,06,25,15,21,14.70
2007,06,25,15,22,14.80
2007,06,25,15,23,14.90
2007,06,25,15,24,15.00
2007,06,25,15,25,15.20
2007,06,25,15,26,15.30
2007,06,25,15,27,15.30
2007,06,25,15,28,15.30
2007,06,25,15,29,15.10
2007,06,25,15,30,15.00
2007,06,25,15,31,15.10
2007,06,25,15,32,15.20
2007,06,25,15,33,15.30
2007,06,25,15,34,15.30
2007,06,25,15,35,15.30
2007,06,25,15,36,15.30
2007,06,25,15,37,15.30
2007,06,25,15,38,15.40
2007,06,25,15,39,15.50
2007,06,25,15,40,15.60
2007,06,25,15,41,15.70
2007,06,25,15,42,15.70
2007,06,25,15,43,15.80
2007,06,25,15,44,15.80
2007,06,25,15,45,15.80
2007,06,25,15,46,15.80
2007,06,25,15,47,15.80
2007,06,25,15,48,15.80
2007,06,25,15,49,15.80
2007,06,25,15,50,15.80
2007,06,25,15,51,15.90
2007,06,25,15,52,15.80
2007,06,25,15,53,15.60
2007,06,25,15,54,15.40
2007,06,25,15,55,15.30
2007,06,25,15,56,15.30
2007,06,25,15,57,15.30
2007,06,25,15,58,15.30
2007,06,25,15,59,15.30
2007,06,25,16,00,15.40
2007,06,25,16,01,15.50
2007,06,25,16,02,15.50
2007,06,25,16,03,15.60
2007,06,25,16,04,15.70
2007,06,25,16,05,15.80
2007,06,25,16,06,15.80
2007,06,25,16,07,15.90
2007,06,25,16,08,15.80
2007,06,25,16,09,15.80
2007,06,25,16,10,15.90
2007,06,25,16,11,15.80
2007,06,25,16,12,15.80
2007,06,25,16,13,15.80
2007,06,25,16,14,15.70
2007,06,25,16,15,15.60
2007,06,25,16,16,15.50
2007,06,25,16,17,15.40
2007,06,25,16,18,15.50
2007,06,25,16,19,15.60
2007,06,25,16,20,15.60
2007,06,25,16,21,15.50
2007,06,25,16,22,15.40
2007,06,25,16,23,15.40
2007,06,25,16,24,15.40
2007,06,25,16,25,15.40
2007,06,25,16,26,15.40
2007,06,25,16,27,15.50
2007,06,25,16,28,15.60
2007,06,25,16,29,15.50
2007,06,25,16,30,15.60
2007,06,25,16,31,15.60
2007,06,25,16,32,15.70
2007,06,25,16,33,15.80
2007,06,25,16,34,15.90
2007,06,25,16,35,16.00
2007,06,25,16,36,16.10
2007,06,25,16,37,16.10
2007,06,25,16,38,16.10
2007,06,25,16,39,16.20
2007,06,25,16,40,16.20
2007,06,25,16,41,16.20
2007,06,25,16,42,16.30
2007,06,25,16,43,16.30
2007,06,25,16,44,16.30
2007,06,25,16,45,16.30
2007,06,25,16,46,16.30
2007,06,25,16,47,16.30
2007,06,25,16,48,16.30
2007,06,25,16,49,16.30
2007,06,25,16,50,16.30
2007,06,25,16,51,16.40
2007,06,25,16,52,16.40
2007,06,25,16,53,16.50
2007,06,25,16,54,16.60
2007,06,25,16,55,16.50
2007,06,25,16,56,16.40
2007,06,25,16,57,16.30
2007,06,25,16,58,16.20
2007,06,25,16,59,16.10
2007,06,25,17,00,16.10
2007,06,25,17,01,16.10
2007,06,25,17,02,16.10
2007,06,25,17,03,16.00
2007,06,25,17,04,16.00
2007,06,25,17,05,16.10
2007,06,25,17,06,16.10
2007,06,25,17,07,16.20
2007,06,25,17,08,16.20
2007,06,25,17,09,16.30
2007,06,25,17,10,16.30
2007,06,25,17,11,16.40
2007,06,25,17,12,16.60
2007,06,25,17,13,16.70
2007,06,25,17,14,16.70
2007,06,25,17,15,16.80
2007,06,25,17,16,16.80
2007,06,25,17,17,16.70
2007,06,25,17,18,16.60
2007,06,25,17,19,16.50
2007,06,25,17,20,16.50
2007,06,25,17,21,16.60
2007,06,25,17,22,16.50
2007,06,25,17,23,16.40
2007,06,25,17,24,16.30
2007,06,25,17,25,16.30
2007,06,25,17,26,16.40
2007,06,25,17,27,16.40
2007,06,25,17,28,16.40
2007,06,25,17,29,16.40
2007,06,25,17,30,16.40
2007,06,25,17,31,16.40
2007,06,25,17,32,16.50
2007,06,25,17,33,16.50
2007,06,25,17,34,16.50
2007,06,25,17,35,16.50
2007,06,25,17,36,16.50
2007,06,25,17,37,16.60
2007,06,25,17,38,16.60
2007,06,25,17,39,16.60
2007,06,25,17,40,16.70
2007,06,25,17,41,16.70
2007,06,25,17,42,16.80
2007,06,25,17,43,16.70
2007,06,25,17,44,16.70
2007,06,25,17,45,16.70
2007,06,25,17,46,16.70
2007,06,25,17,47,16.60
2007,06,25,17,48,16.50
2007,06,25,17,49,16.50
2007,06,25,17,50,16.40
2007,06,25,17,51,16.40
2007,06,25,17,52,16.40
2007,06,25,17,53,16.30
2007,06,25,17,54,16.10
2007,06,25,17,55,16.10
2007,06,25,17,56,16.10
2007,06,25,17,57,16.10
2007,06,25,17,58,16.10
2007,06,25,17,59,16.20
2007,06,25,18,00,16.30
2007,06,25,18,01,16.30
2007,06,25,18,02,16.30
2007,06,25,18,03,16.30
2007,06,25,18,04,16.30
2007,06,25,18,05,16.30
2007,06,25,18,06,16.30
2007,06,25,18,07,16.30
2007,06,25,18,08,16.30
2007,06,25,18,09,16.30
2007,06,25,18,10,16.30
2007,06,25,18,11,16.30
2007,06,25,18,12,16.30
2007,06,25,18,13,16.30
2007,06,25,18,14,16.30
2007,06,25,18,15,16.40
2007,06,25,18,16,16.40
2007,06,25,18,17,16.40
2007,06,25,18,18,16.40
2007,06,25,18,19,16.40
2007,06,25,18,20,16.50
2007,06,25,18,21,16.50
2007,06,25,18,22,16.50
2007,06,25,18,23,16.40
2007,06,25,18,24,16.40
2007,06,25,18,25,16.30
2007,06,25,18,26,16.30
2007,06,25,18,27,16.30
2007,06,25,18,28,16.30
2007,06,25,18,29,16.30
2007,06,25,18,30,16.20
2007,06,25,18,31,16.10
2007,06,25,18,32,16.10
2007,06,25,18,33,16.20
2007,06,25,18,34,16.20
2007,06,25,18,35,16.20
2007,06,25,18,36,16.30
2007,06,25,18,37,16.40
2007,06,25,18,38,16.40
2007,06,25,18,39,16.40
2007,06,25,18,40,16.50
2007,06,25,18,41,16.60
2007,06,25,18,42,16.60
2007,06,25,18,43,16.70
2007,06,25,18,44,16.70
2007,06,25,18,45,16.80
2007,06,25,18,46,16.80
2007,06,25,18,47,16.80
2007,06,25,18,48,16.80
2007,06,25,18,49,16.80
2007,06,25,18,50,16.70
2007,06,25,18,51,16.70
2007,06,25,18,52,16.60
2007,06,25,18,53,16.50
2007,06,25,18,54,16.50
2007,06,25,18,55,16.40
2007,06,25,18,56,16.40
2007,06,25,18,57,16.40
2007,06,25,18,58,16.40
2007,06,25,18,59,16.40
2007,06,25,19,00,16.40
2007,06,25,19,01,16.40
2007,06,25,19,02,16.30
2007,06,25,19,03,16.30
2007,06,25,19,04,16.30
2007,06,25,19,05,16.30
2007,06,25,19,06,16.30
2007,06,25,19,07,16.30
2007,06,25,19,08,16.20
2007,06,25,19,09,16.20
2007,06,25,19,10,16.10
2007,06,25,19,11,16.10
2007,06,25,19,12,16.10
2007,06,25,19,13,16.10
2007,06,25,19,14,16.10
2007,06,25,19,15,16.10
2007,06,25,19,16,16.10
2007,06,25,19,17,16.10
2007,06,25,19,18,16.10
2007,06,25,19,19,16.10
2007,06,25,19,20,16.10
2007,06,25,19,21,16.20
2007,06,25,19,22,16.20
2007,06,25,19,23,16.10
2007,06,25,19,24,16.10
2007,06,25,19,25,16.00
2007,06,25,19,26,16.00
2007,06,25,19,27,15.90
2007,06,25,19,28,15.90
2007,06,25,19,29,15.90
2007,06,25,19,30,15.90
2007,06,25,19,31,15.80
2007,06,25,19,32,15.80
2007,06,25,19,33,15.80
2007,06,25,19,34,15.90
2007,06,25,19,35,15.90
2007,06,25,19,36,15.90
2007,06,25,19,37,15.90
2007,06,25,19,38,15.90
2007,06,25,19,39,15.90
2007,06,25,19,40,15.90
2007,06,25,19,41,15.90
2007,06,25,19,42,15.90
2007,06,25,19,43,15.80
2007,06,25,19,44,15.80
2007,06,25,19,45,15.80
2007,06,25,19,46,15.80
2007,06,25,19,47,15.80
2007,06,25,19,48,15.80
2007,06,25,19,49,15.80
2007,06,25,19,50,15.80
2007,06,25,19,51,15.80
2007,06,25,19,52,15.80
2007,06,25,19,53,15.90
2007,06,25,19,54,15.90
2007,06,25,19,55,15.90
2007,06,25,19,56,16.00
2007,06,25,19,57,16.00
2007,06,25,19,58,16.10
2007,06,25,19,59,16.10
2007,06,25,20,00,16.10
2007,06,25,20,01,16.10
2007,06,25,20,02,16.10
2007,06,25,20,03,16.10
2007,06,25,20,04,16.10
2007,06,25,20,05,16.00
2007,06,25,20,06,16.00
2007,06,25,20,07,16.00
2007,06,25,20,08,15.90
2007,06,25,20,09,16.00
2007,06,25,20,10,16.00
2007,06,25,20,11,16.00
2007,06,25,20,12,16.00
2007,06,25,20,13,16.00
2007,06,25,20,14,16.10
2007,06,25,20,15,16.10
2007,06,25,20,16,16.10
2007,06,25,20,17,16.10
2007,06,25,20,18,16.10
2007,06,25,20,19,16.00
2007,06,25,20,20,16.00
2007,06,25,20,21,15.90
2007,06,25,20,22,15.90
2007,06,25,20,23,15.90
2007,06,25,20,24,15.80
2007,06,25,20,25,15.80
2007,06,25,20,26,15.80
2007,06,25,20,27,15.80
2007,06,25,20,28,15.80
2007,06,25,20,29,15.80
2007,06,25,20,30,15.70
2007,06,25,20,31,15.70
2007,06,25,20,32,15.70
2007,06,25,20,33,15.70
2007,06,25,20,34,15.70
2007,06,25,20,35,15.70
2007,06,25,20,36,15.70
2007,06,25,20,37,15.70
2007,06,25,20,38,15.70
2007,06,25,20,39,15.70
2007,06,25,20,40,15.70
2007,06,25,20,41,15.70
2007,06,25,20,42,15.70
2007,06,25,20,43,15.70
2007,06,25,20,44,15.70
2007,06,25,20,45,15.70
2007,06,25,20,46,15.70
2007,06,25,20,47,15.80
2007,06,25,20,48,15.80
2007,06,25,20,49,15.80
2007,06,25,20,50,15.80
2007,06,25,20,51,15.70
2007,06,25,20,52,15.70
2007,06,25,20,53,15.70
2007,06,25,20,54,15.70
2007,06,25,20,55,15.60
2007,06,25,20,56,15.60
2007,06,25,20,57,15.50
2007,06,25,20,58,15.40
2007,06,25,20,59,15.30
2007,06,25,21,00,15.30
2007,06,25,21,01,15.20
2007,06,25,21,02,15.10
2007,06,25,21,03,15.00
2007,06,25,21,04,15.00
2007,06,25,21,05,15.00
2007,06,25,21,06,15.00
2007,06,25,21,07,15.00
2007,06,25,21,08,14.90
2007,06,25,21,09,14.80
2007,06,25,21,10,14.70
2007,06,25,21,11,14.70
2007,06,25,21,12,14.60
2007,06,25,21,13,14.50
2007,06,25,21,14,14.50
2007,06,25,21,15,14.40
2007,06,25,21,16,14.40
2007,06,25,21,17,14.30
2007,06,25,21,18,14.20
2007,06,25,21,19,14.20
2007,06,25,21,20,14.10
2007,06,25,21,21,14.10
2007,06,25,21,22,14.10
2007,06,25,21,23,14.00
2007,06,25,21,24,14.00
2007,06,25,21,25,13.90
2007,06,25,21,26,13.90
2007,06,25,21,27,13.90
2007,06,25,21,28,13.80
2007,06,25,21,29,13.80
2007,06,25,21,30,13.80
2007,06,25,21,31,13.70
2007,06,25,21,32,13.70
2007,06,25,21,33,13.60
2007,06,25,21,34,13.60
2007,06,25,21,35,13.50
2007,06,25,21,36,13.50
2007,06,25,21,37,13.50
2007,06,25,21,38,13.40
2007,06,25,21,39,13.40
2007,06,25,21,40,13.40
2007,06,25,21,41,13.40
2007,06,25,21,42,13.30
2007,06,25,21,43,13.30
2007,06,25,21,44,13.30
2007,06,25,21,45,13.30
2007,06,25,21,46,13.20
2007,06,25,21,47,13.20
2007,06,25,21,48,13.20
2007,06,25,21,49,13.20
2007,06,25,21,50,13.20
2007,06,25,21,51,13.20
2007,06,25,21,52,13.20
2007,06,25,21,53,13.10
2007,06,25,21,54,13.10
2007,06,25,21,55,13.10
2007,06,25,21,56,13.10
2007,06,25,21,57,13.00
2007,06,25,21,58,13.00
2007,06,25,21,59,13.00
2007,06,25,22,00,12.90
2007,06,25,22,01,12.90
2007,06,25,22,02,12.90
2007,06,25,22,03,12.80
2007,06,25,22,04,12.80
2007,06,25,22,05,12.80
2007,06,25,22,06,12.70
2007,06,25,22,07,12.70
2007,06,25,22,08,12.70
2007,06,25,22,09,12.60
2007,06,25,22,10,12.60
2007,06,25,22,11,12.60
2007,06,25,22,12,12.60
2007,06,25,22,13,12.60
2007,06,25,22,14,12.50
2007,06,25,22,15,12.50
2007,06,25,22,16,12.50
2007,06,25,22,17,12.50
2007,06,25,22,18,12.50
2007,06,25,22,19,12.40
2007,06,25,22,20,12.40
2007,06,25,22,21,12.40
2007,06,25,22,22,12.40
2007,06,25,22,23,12.40
2007,06,25,22,24,12.40
2007,06,25,22,25,12.40
2007,06,25,22,26,12.30
2007,06,25,22,27,12.30
2007,06,25,22,28,12.30
2007,06,25,22,29,12.30
2007,06,25,22,30,12.30
2007,06,25,22,31,12.30
2007,06,25,22,32,12.30
2007,06,25,22,33,12.30
2007,06,25,22,34,12.30
2007,06,25,22,35,12.30
2007,06,25,22,36,12.30
2007,06,25,22,37,12.30
2007,06,25,22,38,12.30
2007,06,25,22,39,12.30
2007,06,25,22,40,12.30
2007,06,25,22,41,12.30
2007,06,25,22,42,12.20
2007,06,25,22,43,12.20
2007,06,25,22,44,12.20
2007,06,25,22,45,12.30
2007,06,25,22,46,12.30
2007,06,25,22,47,12.20
2007,06,25,22,48,12.30